Location: Big Meadows
(38.5260°N, 78.4400°W)
Time: 19:28:45
(UTC-05:00)

Amateur Radio Satellites - All Passes

Search period start: 24 November 2014 18:58
Search period end: 25 November 2014 18:58
Location: Big Meadows, 38.5260°N, 78.4400°W

Satellite Date Start Highest point End Downlink Frequencies (MHz)
Time Altitude Azimuth
PRISM 24 Nov 19:08:00 19:11:44 30° 290° (WNW) 19:15:26 437.425
CUTE 1.7 & AOD 2 24 Nov 19:11:46 19:13:09 11° 64° (ENE) 19:14:32 437.475
HO-68 24 Nov 19:28:38 19:35:10 40° 65° (ENE) 19:41:43 435.675
RS-15 24 Nov 19:44:10 19:52:00 22° 336° (NNW) 19:59:56 29.354- 29.394
SEEDS 24 Nov 19:44:36 19:47:55 23° 69° (ENE) 19:51:15 437.485
GOMX 1 24 Nov 19:50:51 19:54:46 25° 70° (ENE) 19:58:28 467.674
PCSat 24 Nov 19:52:20 19:57:42 70° 115° (ESE) 20:03:06 145.827
AIST 1 24 Nov 20:03:10 20:07:33 82° 277° (W) 20:12:00
DX 1 24 Nov 20:03:49 20:06:18 15° 65° (ENE) 20:08:47 434.975-435.025
AAUSAT CUBESAT 2 24 Nov 20:04:14 20:07:48 28° 70° (ENE) 20:11:23 437.432
CINEMA 3 24 Nov 20:04:45 20:07:09 15° 66° (ENE) 20:09:31 145.822/145.860
PHONESAT 2.4 24 Nov 20:05:12 20:08:52 60° 201° (SSW) 20:12:32 2401.200-2431.200
CANX-2 24 Nov 20:09:32 20:13:40 58° 75° (ENE) 20:17:49 2200.000
BRITE-PL 24 Nov 20:10:35 20:15:36 57° 75° (ENE) 20:20:14 437.365/2234.400
COMPASS 1 24 Nov 20:17:59 20:21:58 47° 74° (ENE) 20:25:59 437.405
DELFI C3 24 Nov 20:18:05 20:20:45 17° 67° (ENE) 20:23:26 145.870
VERMONT LUNAR 24 Nov 20:22:50 20:26:10 34° 207° (SSW) 20:29:29 437.305
STRAND 1 24 Nov 20:29:54 20:33:21 19° 296° (WNW) 20:36:46 437.568
ZACube-1 24 Nov 20:31:38 20:33:28 13° 65° (ENE) 20:35:17 437.345
BEESAT 3 24 Nov 20:36:37 20:40:43 88° 301° (WNW) 20:44:54 437.485
CUBESAT XI-V 24 Nov 20:36:57 20:38:43 12° 297° (WNW) 20:40:28 437.345
GONETS M04 24 Nov 20:40:54 20:49:14 49° 271° (W) 20:57:30
CUTE 1.7 & AOD 2 24 Nov 20:44:24 20:48:33 59° 260° (W) 20:52:44 437.475
BEESAT 2 24 Nov 20:50:51 20:54:56 68° 302° (WNW) 20:59:06 435.950
AISAT 24 Nov 20:52:04 20:54:46 16° 65° (ENE) 20:57:28 437.250
DOVE 4 24 Nov 20:52:36 20:57:19 84° 77° (ENE) 21:01:46 437.250
UKube-1 24 Nov 21:03:40 21:07:59 66° 74° (ENE) 21:12:19 .
FUNcube-1 24 Nov 21:05:01 21:08:41 29° 71° (ENE) 21:12:19 145.935
Oscar 11 24 Nov 21:16:08 21:20:26 82° 258° (WSW) 21:24:46 145.826/435.025
HO-68 24 Nov 21:16:14 21:22:48 38° 262° (W) 21:29:25 435.675
AIST 2 24 Nov 21:18:38 21:22:50 72° 302° (WNW) 21:27:08 435.215
SEEDS 24 Nov 21:20:06 21:23:38 26° 264° (W) 21:27:11 437.485
CUBEBUG 2 24 Nov 21:23:31 21:27:48 69° 76° (ENE) 21:31:59 437.445
UWE-3 24 Nov 21:26:51 21:31:04 64° 75° (ENE) 21:35:13 435.000/436.395/437.385
GOMX 1 24 Nov 21:28:28 21:32:46 30° 263° (W) 21:36:50 467.674
DX 1 24 Nov 21:37:53 21:42:07 48° 260° (W) 21:46:23 434.975-435.025
PCSat 24 Nov 21:37:58 21:41:39 18° 313° (NW) 21:45:21 145.827
CINEMA 3 24 Nov 21:39:43 21:44:01 47° 260° (W) 21:48:10 145.822/145.860
AAUSAT CUBESAT 2 24 Nov 21:40:20 21:43:29 21° 266° (W) 21:46:39 437.432
PHONESAT 2.4 24 Nov 21:45:09 21:47:12 14° 216° (SW) 21:49:15 2401.200-2431.200
ANTELSAT 24 Nov 21:46:24 21:48:28 13° 92° (E) 21:50:33 437.575/2403.000
CANX-2 24 Nov 21:49:11 21:49:58 10° 270° (W) 21:50:44 2200.000
BRITE-PL 24 Nov 21:51:34 21:54:18 15° 267° (W) 21:56:57 437.365/2234.400
DELFI C3 24 Nov 21:52:04 21:55:47 34° 262° (W) 21:59:32 145.870
ESTCUBE 1 24 Nov 21:55:18 21:59:08 28° 69° (ENE) 22:02:59 437.505/2401.250
COMPASS 1 24 Nov 21:56:07 21:57:57 13° 269° (W) 21:59:48 437.405
50 SAT 24 Nov 21:57:38 22:01:37 60° 75° (ENE) 22:05:35 437.505
HUMSAT D 24 Nov 21:59:07 22:03:15 78° 76° (ENE) 22:07:23 437.325/437.525
VELOX 1 24 Nov 22:01:05 22:05:34 87° 76° (ENE) 22:10:04 145.980
RS-15 24 Nov 22:03:33 22:10:25 18° 13° (NNE) 22:17:24 29.354- 29.394
ZACube-1 24 Nov 22:05:17 22:09:25 51° 260° (W) 22:13:30 437.345
BEESAT 3 24 Nov 22:18:38 22:19:36 11° 319° (NW) 22:20:33 437.485
POLYITAN 1 24 Nov 22:19:20 22:22:27 20° 94° (E) 22:25:32 437.675
QB50P2 24 Nov 22:21:50 22:25:05 21° 95° (E) 22:28:18 145.880/145.840
AISAT 24 Nov 22:26:41 22:31:00 47° 260° (W) 22:35:20 437.250
DUCHIFAT 1 24 Nov 22:28:39 22:32:07 25° 96° (E) 22:35:34 145.980
TISAT 1 24 Nov 22:34:39 22:37:28 17° 66° (ENE) 22:40:16 437.305
TIGRISAT 24 Nov 22:39:43 22:44:02 51° 100° (E) 22:48:26 435.000
SPROUT 24 Nov 22:40:03 22:42:53 17° 66° (ENE) 22:45:42 437.525
FUNcube-1 24 Nov 22:41:54 22:45:04 20° 265° (W) 22:48:12 145.935
CUBEBUG 1 24 Nov 22:44:37 22:49:04 89° 257° (WSW) 22:53:33 437.445
ISS 24 Nov 22:46:14 22:48:20 16° 130° (SE) 22:50:26 145.825
NANOSAT C BR1 24 Nov 22:47:24 22:51:25 41° 99° (E) 22:55:23 145.865
UNISAT 6 24 Nov 22:52:30 22:56:57 73° 102° (ESE) 23:01:29 437.425
CUSAT 1 24 Nov 22:54:24 22:57:14 15° 75° (ENE) 23:00:30 437.405
QB50P1 24 Nov 22:57:00 23:01:09 54° 100° (E) 23:05:16 145.935-145.965
DANDE 24 Nov 23:13:36 23:16:54 19° 77° (ENE) 23:20:51 436.750
BUGSAT 1 24 Nov 23:14:59 23:19:05 73° 102° (ESE) 23:23:06 437.445
ANTELSAT 24 Nov 23:21:13 23:25:32 53° 286° (WNW) 23:29:57 437.575/2403.000
POPSAT HIP 1 24 Nov 23:21:35 23:25:48 76° 284° (WNW) 23:30:00 437.405
BEESAT 24 Nov 23:27:36 23:28:42 11° 61° (ENE) 23:29:48 436.000
ESTCUBE 1 24 Nov 23:32:07 23:35:56 26° 264° (W) 23:39:46 437.505/2401.250
POLYITAN 1 24 Nov 23:54:42 23:58:26 31° 289° (WNW) 00:02:09 437.675
QB50P2 24 Nov 23:57:20 00:01:00 29° 290° (WNW) 00:04:39 145.880/145.840
DUCHIFAT 1 25 Nov 00:04:28 00:07:54 25° 291° (WNW) 00:11:20 145.980
TISAT 1 25 Nov 00:09:00 00:13:00 38° 262° (W) 00:17:00 437.305
SPROUT 25 Nov 00:14:36 00:18:39 39° 262° (W) 00:22:43 437.525
AUBIESAT-1 25 Nov 00:15:41 00:19:36 63° 69° (ENE) 00:23:56 437.475
RS-15 25 Nov 00:16:29 00:26:59 43° 45° (NE) 00:37:50 29.354- 29.394
TIGRISAT 25 Nov 00:17:58 00:20:23 15° 295° (WNW) 00:22:49 435.000
ITUPSAT 1 25 Nov 00:18:41 00:23:03 35° 70° (ENE) 00:27:26 437.325
M-CUBED/EXP-1 PRIME 25 Nov 00:19:57 00:23:54 78° 71° (ENE) 00:28:16 437.505
ISS 25 Nov 00:21:31 00:24:42 47° 325° (NW) 00:27:55 145.825
MaSat-1 25 Nov 00:22:09 00:23:24 13° 59° (ENE) 00:24:40 437.345
NANOSAT C BR1 25 Nov 00:24:25 00:26:57 16° 294° (WNW) 00:29:29 145.865
SWISSCUBE 25 Nov 00:29:50 00:34:28 51° 72° (ENE) 00:39:08 437.505
UNISAT 6 25 Nov 00:32:19 00:33:10 11° 297° (WNW) 00:34:01 437.425
Oscar 19 25 Nov 00:32:31 00:35:02 14° 91° (E) 00:37:33 437.125/150
QB50P1 25 Nov 00:34:49 00:36:34 12° 296° (WNW) 00:38:19 145.935-145.965
CUSAT 1 25 Nov 00:35:42 00:40:17 57° 263° (W) 00:46:25 437.405
DANDE 25 Nov 00:55:58 01:00:16 42° 263° (W) 01:05:57 436.750
BEESAT 25 Nov 01:01:02 01:05:50 82° 257° (WSW) 01:10:39 436.000
STARS 25 Nov 01:12:07 01:15:00 17° 66° (ENE) 01:17:53 437.465
JUGNU 25 Nov 01:15:22 01:17:21 12° 177° (S) 01:19:21 437.505
ITAMSAT 1 25 Nov 01:22:17 01:25:20 16° 92° (E) 01:28:21 435.822/435.867
Gurwin Techsat 1B 25 Nov 01:46:57 01:50:08 16° 92° (E) 01:53:17 435.225
KKS-1 25 Nov 01:48:18 01:52:42 65° 74° (ENE) 01:57:07 437.445
YUBILEINY 25 Nov 01:53:45 02:01:35 38° 86° (E) 02:09:24 435.215
MaSat-1 25 Nov 01:57:03 01:57:49 11° 252° (WSW) 01:58:36 437.345
ITUPSAT 1 25 Nov 01:57:14 02:00:59 23° 265° (W) 02:04:46 437.325
ISS 25 Nov 02:00:35 02:02:00 12° 344° (NNW) 02:03:25 145.825
Oscar 19 25 Nov 02:09:40 02:14:47 65° 286° (WNW) 02:19:54 437.125/150
SWISSCUBE 25 Nov 02:09:47 02:12:36 16° 268° (W) 02:15:27 437.505
RS-15 25 Nov 02:28:49 02:39:46 60° 247° (WSW) 02:51:14 29.354- 29.394
STARS 25 Nov 02:47:00 02:51:10 41° 261° (W) 02:55:20 437.465
HORYU 2 25 Nov 02:57:46 03:01:49 32° 97° (E) 03:05:51 437.375
ITAMSAT 1 25 Nov 03:00:05 03:05:10 57° 287° (WNW) 03:10:12 435.822/435.867
JUGNU 25 Nov 03:04:09 03:05:28 11° 187° (S) 03:06:46 437.505
SRMSAT 25 Nov 03:11:45 03:13:59 12° 179° (S) 03:16:14 437.500
Gurwin Techsat 1B 25 Nov 03:25:14 03:30:27 59° 287° (WNW) 03:35:38 435.225
KKS-1 25 Nov 03:28:57 03:29:45 10° 269° (W) 03:30:33 437.445
AO-7 25 Nov 03:29:13 03:36:11 29° 96° (E) 03:43:06 29.400- 29.500
YUBILEINY 25 Nov 03:49:52 03:58:10 45° 285° (WNW) 04:06:30 435.215
SO-50 25 Nov 03:50:30 03:54:56 66° 118° (ESE) 03:59:32 436.795
JAS-2 25 Nov 03:53:33 03:55:21 11° 83° (E) 03:57:07 435.910
MOZHAYETS 4 25 Nov 04:20:54 04:25:27 72° 76° (ENE) 04:30:04
PRISM 25 Nov 04:23:50 04:25:59 14° 64° (ENE) 04:28:10 437.425
HORYU 2 25 Nov 04:34:50 04:38:17 22° 293° (WNW) 04:41:45 437.375
PCSat 25 Nov 04:41:51 04:46:59 41° 56° (NE) 04:52:04 145.827
BEESAT 3 25 Nov 04:58:09 05:02:04 37° 53° (NE) 05:05:55 437.485
O/OREOS (USA 219) 25 Nov 05:09:15 05:12:07 17° 100° (E) 05:15:00 437.305
BEESAT 2 25 Nov 05:12:34 05:16:39 47° 55° (NE) 05:20:40 435.950
ISS 25 Nov 05:15:12 05:17:38 19° 25° (NNE) 05:20:04 145.825
AO-7 25 Nov 05:21:10 05:29:20 61° 293° (WNW) 05:37:30 29.400- 29.500
Cubesat XI-IV 25 Nov 05:31:30 05:35:13 19° 93° (E) 05:38:56 437.490
SO-50 25 Nov 05:33:05 05:35:58 16° 317° (NW) 05:38:54 436.795
JAS-2 25 Nov 05:34:31 05:41:40 82° 103° (ESE) 05:47:55 435.910
AIST 2 25 Nov 05:42:08 05:46:19 47° 55° (NE) 05:50:25 435.215
PRISM 25 Nov 05:57:03 06:01:06 48° 260° (W) 06:05:13 437.425
CUBESAT XI-V 25 Nov 05:59:09 06:03:45 56° 74° (ENE) 06:08:24 437.345
STRAND 1 25 Nov 06:03:59 06:09:04 64° 73° (ENE) 06:14:10 437.568
CUTE-I 25 Nov 06:12:09 06:17:16 46° 99° (E) 06:22:20 437.470
AIST 1 25 Nov 06:12:52 06:16:14 21° 74° (ENE) 06:19:32
PCSat 25 Nov 06:25:43 06:30:08 26° 253° (WSW) 06:34:32 145.827
BEESAT 3 25 Nov 06:37:02 06:40:01 19° 250° (WSW) 06:42:58 437.485
O/OREOS (USA 219) 25 Nov 06:46:55 06:51:09 41° 296° (WNW) 06:55:24 437.305
ISS 25 Nov 06:51:17 06:54:33 64° 222° (SW) 06:57:49 145.825
BEESAT 2 25 Nov 06:52:08 06:54:31 15° 251° (WSW) 06:56:53 435.950
Cubesat XI-IV 25 Nov 07:10:26 07:15:34 49° 289° (WNW) 07:20:39 437.490
AO-7 25 Nov 07:17:11 07:20:24 13° 313° (NW) 07:23:38 29.400- 29.500
JAS-2 25 Nov 07:21:12 07:25:38 18° 303° (WNW) 07:29:48 435.910
AIST 2 25 Nov 07:22:02 07:24:32 15° 251° (WSW) 07:27:00 435.215
CUBESAT XI-V 25 Nov 07:39:12 07:41:32 14° 269° (W) 07:43:52 437.345
GONETS M04 25 Nov 07:43:26 07:51:28 42° 87° (E) 07:59:34
STRAND 1 25 Nov 07:46:05 07:48:39 14° 269° (W) 07:51:13 437.568
AIST 1 25 Nov 07:50:07 07:53:53 29° 270° (W) 07:57:37
CUTE-I 25 Nov 07:53:03 07:56:59 22° 295° (WNW) 08:00:54 437.470
CANX-2 25 Nov 07:58:56 08:00:20 11° 91° (E) 08:01:43 2200.000
BRITE-PL 25 Nov 08:18:09 08:20:45 16° 93° (E) 08:23:22 437.365/2234.400
CUTE 1.7 & AOD 2 25 Nov 08:31:49 08:35:25 26° 96° (E) 08:39:00 437.475
HO-68 25 Nov 08:44:50 08:51:41 46° 100° (E) 08:58:28 435.675
DOVE 4 25 Nov 08:53:54 08:57:11 22° 95° (E) 09:00:32 437.250
UKube-1 25 Nov 08:55:12 08:56:59 12° 92° (E) 08:58:45 .
SEEDS 25 Nov 09:05:35 09:09:47 55° 100° (E) 09:13:58 437.485
Oscar 11 25 Nov 09:05:55 09:09:08 20° 94° (E) 09:12:21 145.826/435.025
POLYITAN 1 25 Nov 09:12:45 09:14:57 14° 65° (ENE) 09:17:09 437.675
QB50P2 25 Nov 09:14:55 09:17:18 15° 65° (ENE) 09:19:41 145.880/145.840
CUBEBUG 2 25 Nov 09:17:26 09:19:59 15° 93° (E) 09:22:34 437.445
UWE-3 25 Nov 09:19:50 09:22:06 14° 93° (E) 09:24:22 435.000/436.395/437.385
DUCHIFAT 1 25 Nov 09:21:09 09:23:54 17° 66° (ENE) 09:26:39 145.980
AAUSAT CUBESAT 2 25 Nov 09:24:15 09:28:28 68° 101° (E) 09:32:41 437.432
DX 1 25 Nov 09:28:06 09:31:57 30° 97° (E) 09:35:46 434.975-435.025
GOMX 1 25 Nov 09:31:06 09:35:16 85° 102° (ESE) 09:39:32 467.674
CANX-2 25 Nov 09:32:23 09:36:35 56° 286° (WNW) 09:40:47 2200.000
DELFI C3 25 Nov 09:34:16 09:38:04 35° 98° (E) 09:41:51 145.870
CINEMA 3 25 Nov 09:35:58 09:39:57 40° 99° (E) 09:44:03 145.822/145.860
TIGRISAT 25 Nov 09:37:46 09:41:40 36° 72° (ENE) 09:45:35 435.000
COMPASS 1 25 Nov 09:38:56 09:43:10 71° 284° (WNW) 09:47:24 437.405
NANOSAT C BR1 25 Nov 09:39:27 09:43:02 27° 70° (ENE) 09:46:37 145.865
GONETS M04 25 Nov 09:40:06 09:48:13 41° 286° (WNW) 09:56:27
HUMSAT D 25 Nov 09:46:49 09:49:03 14° 92° (E) 09:51:17 437.325/437.525
QB50P1 25 Nov 09:48:54 09:52:45 34° 71° (ENE) 09:56:37 145.935-145.965
UNISAT 6 25 Nov 09:50:38 09:54:48 53° 74° (ENE) 09:58:57 437.425
VELOX 1 25 Nov 09:54:38 09:57:43 18° 94° (E) 10:00:47 145.980
BRITE-PL 25 Nov 09:55:39 09:59:25 34° 288° (WNW) 10:03:13 437.365/2234.400
ZACube-1 25 Nov 09:55:40 09:59:26 31° 97° (E) 10:03:15 437.345
BUGSAT 1 25 Nov 10:03:52 10:07:54 42° 73° (ENE) 10:11:55 437.445
CUTE 1.7 & AOD 2 25 Nov 10:07:44 10:11:15 25° 291° (WNW) 10:14:45 437.475
POPSAT HIP 1 25 Nov 10:13:09 10:17:23 67° 75° (ENE) 10:21:37 437.405
ANTELSAT 25 Nov 10:19:11 10:23:27 71° 258° (WSW) 10:27:43 437.575/2403.000
AISAT 25 Nov 10:19:34 10:23:38 35° 98° (E) 10:27:41 437.250
UKube-1 25 Nov 10:29:13 10:33:27 53° 287° (WNW) 10:37:39 .
FUNcube-1 25 Nov 10:30:37 10:34:51 80° 102° (ESE) 10:39:10 145.935
DOVE 4 25 Nov 10:31:27 10:34:57 27° 290° (WNW) 10:38:32 437.250
HO-68 25 Nov 10:32:55 10:39:08 33° 297° (WNW) 10:45:20 435.675
CUBEBUG 1 25 Nov 10:36:25 10:39:30 19° 94° (E) 10:42:33 437.445
Oscar 11 25 Nov 10:41:28 10:45:21 32° 289° (WNW) 10:49:13 145.826/435.025
SEEDS 25 Nov 10:43:18 10:45:08 13° 295° (WNW) 10:46:58 437.485
POLYITAN 1 25 Nov 10:46:21 10:50:29 48° 260° (W) 10:54:37 437.675
QB50P2 25 Nov 10:48:45 10:52:50 45° 261° (W) 10:56:57 145.880/145.840
CUBEBUG 2 25 Nov 10:52:52 10:56:51 40° 287° (WNW) 11:00:54 437.445
UWE-3 25 Nov 10:54:48 10:58:50 44° 287° (WNW) 11:02:57 435.000/436.395/437.385
DUCHIFAT 1 25 Nov 10:55:29 10:59:28 38° 262° (W) 11:03:27 145.980
AAUSAT CUBESAT 2 25 Nov 11:03:05 11:03:34 10° 297° (WNW) 11:04:03 437.432
DX 1 25 Nov 11:04:41 11:08:00 22° 293° (WNW) 11:11:19 434.975-435.025
DELFI C3 25 Nov 11:10:19 11:13:06 18° 293° (WNW) 11:15:52 145.870
CINEMA 3 25 Nov 11:14:19 11:16:53 16° 293° (WNW) 11:19:29 145.822/145.860
50 SAT 25 Nov 11:15:17 11:19:17 60° 285° (WNW) 11:23:18 437.505
NANOSAT C BR1 25 Nov 11:15:27 11:18:52 23° 265° (W) 11:22:18 145.865
TIGRISAT 25 Nov 11:15:47 11:18:33 17° 267° (W) 11:21:19 435.000
HUMSAT D 25 Nov 11:21:06 11:25:03 43° 287° (WNW) 11:29:02 437.325/437.525
ESTCUBE 1 25 Nov 11:25:40 11:30:13 73° 102° (ESE) 11:34:43 437.505/2401.250
QB50P1 25 Nov 11:25:47 11:28:44 18° 266° (W) 11:31:42 145.935-145.965
VELOX 1 25 Nov 11:30:21 11:34:25 36° 289° (WNW) 11:38:26 145.980
UNISAT 6 25 Nov 11:30:25 11:31:54 12° 269° (W) 11:33:24 437.425
ZACube-1 25 Nov 11:32:28 11:35:38 21° 292° (WNW) 11:38:50 437.345
BUGSAT 1 25 Nov 11:41:08 11:43:34 15° 267° (W) 11:46:01 437.445
Oscar 19 25 Nov 11:47:55 11:51:20 18° 64° (ENE) 11:54:45 437.125/150
TISAT 1 25 Nov 11:55:37 11:59:30 35° 98° (E) 12:03:21 437.305
AISAT 25 Nov 11:56:51 12:00:01 20° 293° (WNW) 12:03:10 437.250
SPROUT 25 Nov 12:02:54 12:06:54 38° 98° (E) 12:10:52 437.525
YUBILEINY 25 Nov 12:06:44 12:11:48 16° 63° (ENE) 12:16:49 435.215
CUBEBUG 1 25 Nov 12:12:00 12:15:58 35° 289° (WNW) 12:19:53 437.445
SO-50 25 Nov 12:23:22 12:27:59 42° 53° (NE) 12:32:38 436.795
DANDE 25 Nov 12:30:10 12:31:41 14° 94° (E) 12:33:08 436.750
SWISSCUBE 25 Nov 12:33:24 12:36:05 15° 92° (E) 12:38:44 437.505
ITAMSAT 1 25 Nov 12:38:41 12:42:38 22° 65° (ENE) 12:46:35 435.822/435.867
BEESAT 25 Nov 13:03:26 13:07:35 29° 96° (E) 13:11:42 436.000
ESTCUBE 1 25 Nov 13:05:18 13:06:27 11° 298° (WNW) 13:07:37 437.505/2401.250
Gurwin Techsat 1B 25 Nov 13:06:27 13:10:32 23° 66° (ENE) 13:14:38 435.225
VERMONT LUNAR 25 Nov 13:14:53 13:15:34 10° 142° (SE) 13:16:15 437.305
Oscar 19 25 Nov 13:25:17 13:30:14 52° 260° (W) 13:35:14 437.125/150
TISAT 1 25 Nov 13:32:13 13:35:04 18° 293° (WNW) 13:37:54 437.305
AUBIESAT-1 25 Nov 13:34:18 13:39:14 71° 106° (ESE) 13:44:01 437.475
M-CUBED/EXP-1 PRIME 25 Nov 13:39:01 13:43:59 86° 108° (ESE) 13:48:49 437.505
SPROUT 25 Nov 13:39:52 13:42:41 17° 293° (WNW) 13:45:30 437.525
KKS-1 25 Nov 13:42:47 13:45:06 14° 92° (E) 13:47:24 437.445
CUSAT 1 25 Nov 13:50:09 13:52:06 17° 284° (WNW) 13:53:58 437.405
HORYU 2 25 Nov 13:55:28 13:59:07 26° 68° (ENE) 14:02:47 437.375
ITUPSAT 1 25 Nov 13:58:13 14:03:02 77° 285° (WNW) 14:07:48 437.325
YUBILEINY 25 Nov 14:01:10 14:09:56 86° 83° (E) 14:18:37 435.215
SO-50 25 Nov 14:04:29 14:08:18 23° 249° (WSW) 14:12:07 436.795
SWISSCUBE 25 Nov 14:09:34 14:14:14 53° 287° (WNW) 14:18:52 437.505
DANDE 25 Nov 14:14:19 14:15:04 11° 285° (WNW) 14:15:48 436.750
ITAMSAT 1 25 Nov 14:16:51 14:21:48 43° 261° (W) 14:26:47 435.822/435.867
AO-7 25 Nov 14:26:46 14:34:03 36° 61° (ENE) 14:41:21 29.400- 29.500
PHONESAT 2.4 25 Nov 14:36:29 14:39:45 29° 151° (SSE) 14:43:01 2401.200-2431.200
STARS 25 Nov 14:38:29 14:42:37 39° 99° (E) 14:46:43 437.465
RS-15 25 Nov 14:41:11 14:49:30 26° 103° (ESE) 14:57:43 29.354- 29.394
BEESAT 25 Nov 14:41:17 14:45:20 28° 292° (WNW) 14:49:23 436.000
Gurwin Techsat 1B 25 Nov 14:45:11 14:50:12 43° 261° (W) 14:55:15 435.225
VERMONT LUNAR 25 Nov 14:50:00 14:53:29 48° 156° (SSE) 14:57:00 437.305
AUBIESAT-1 25 Nov 15:10:58 15:13:35 15° 302° (WNW) 15:16:11 437.475
M-CUBED/EXP-1 PRIME 25 Nov 15:16:21 15:18:17 12° 304° (WNW) 15:20:12 437.505
KKS-1 25 Nov 15:17:43 15:22:00 48° 287° (WNW) 15:26:15 437.445
O/OREOS (USA 219) 25 Nov 15:19:12 15:23:00 26° 61° (ENE) 15:26:47 437.305
MaSat-1 25 Nov 15:22:27 15:25:30 68° 296° (WNW) 15:28:15 437.345
HORYU 2 25 Nov 15:31:58 15:35:42 26° 264° (W) 15:39:27 437.375
JAS-2 25 Nov 15:43:18 15:50:03 36° 65° (ENE) 15:56:59 435.910
YUBILEINY 25 Nov 16:00:22 16:05:29 17° 282° (WNW) 16:10:37 435.215
PHONESAT 2.4 25 Nov 16:14:38 16:18:21 84° 347° (NNW) 16:22:05 2401.200-2431.200
STARS 25 Nov 16:15:51 16:18:47 18° 294° (WNW) 16:21:44 437.465
AO-7 25 Nov 16:18:33 16:26:31 51° 258° (WSW) 16:34:34 29.400- 29.500
MOZHAYETS 4 25 Nov 16:18:37 16:22:00 20° 93° (E) 16:25:21
VERMONT LUNAR 25 Nov 16:28:20 16:31:57 67° 353° (N) 16:35:34 437.305
RS-15 25 Nov 16:49:37 17:00:36 78° 302° (WNW) 17:11:36 29.354- 29.394
Cubesat XI-IV 25 Nov 16:51:57 16:56:29 29° 67° (ENE) 17:01:01 437.490
O/OREOS (USA 219) 25 Nov 16:58:34 17:02:18 27° 257° (WSW) 17:06:03 437.305
JAS-2 25 Nov 17:27:30 17:34:44 49° 262° (W) 17:42:19 435.910
CUTE-I 25 Nov 17:32:33 17:37:52 67° 74° (ENE) 17:43:11 437.470
PRISM 25 Nov 17:42:11 17:45:45 26° 96° (E) 17:49:17 437.425
PHONESAT 2.4 25 Nov 17:53:37 17:57:19 63° 4° (N) 18:01:01 2401.200-2431.200
MOZHAYETS 4 25 Nov 17:55:01 17:59:20 38° 289° (WNW) 18:03:37
GONETS M04 25 Nov 17:56:19 18:02:09 19° 64° (ENE) 18:07:55
CUBESAT XI-V 25 Nov 17:58:58 18:01:47 16° 92° (E) 18:04:35 437.345
VERMONT LUNAR 25 Nov 18:06:59 18:10:37 72° 10° (N) 18:14:14 437.305
STRAND 1 25 Nov 18:16:45 18:20:51 24° 95° (E) 18:24:55 437.568
Cubesat XI-IV 25 Nov 18:31:34 18:36:25 34° 263° (W) 18:41:18 437.490
AIST 1 25 Nov 18:42:28 18:44:41 14° 85° (E) 18:46:54
